Time,TemperatureF,DewpointF,PressureIn,WindDirection,WindDirectionDegrees,WindSpeedMPH,WindSpeedGustMPH,Humidity,HourlyPrecipIn,Conditions,Clouds,dailyrainin,SoftwareType,DateUTC
2013-02-20 00:00:00,28.6,4.3,28.91,SE,140,2.4,9.2,31,-99.99,,,-99.99,WSDL version 420,2013-02-20 05:00:00,
2013-02-20 00:01:00,28.6,4.4,28.91,NNW,338,4.1,10.5,31,-99.99,,,-99.99,WSDL version 420,2013-02-20 05:01:00,
2013-02-20 00:04:00,28.5,4.5,28.91,NW,315,7.0,12.1,31,-99.99,,,-99.99,WSDL version 420,2013-02-20 05:04:00,
2013-02-20 00:09:00,28.1,4.8,28.91,WNW,295,5.3,12.1,32,-99.99,,,-99.99,WSDL version 420,2013-02-20 05:09:00,
2013-02-20 00:14:00,27.9,4.5,28.91,NW,318,5.3,9.6,32,-99.99,,,-99.99,WSDL version 420,2013-02-20 05:14:00,
2013-02-20 00:19:00,27.7,4.4,28.91,NW,307,8.3,12.3,32,0.00,,,0.00,WSDL version 420,2013-02-20 05:19:00,
2013-02-20 00:24:00,27.7,4.2,28.91,WNW,295,7.9,16.8,31,-99.99,,,-99.99,WSDL version 420,2013-02-20 05:24:00,
2013-02-20 00:29:00,27.5,4.0,28.91,NW,320,6.3,16.8,32,-99.99,,,-99.99,WSDL version 420,2013-02-20 05:29:00,
2013-02-20 00:34:00,27.3,4.0,28.91,WNW,295,7.4,15.2,32,-99.99,,,-99.99,WSDL version 420,2013-02-20 05:34:00,
2013-02-20 00:39:00,27.1,4.1,28.91,West,275,6.1,15.2,33,0.00,,,0.00,WSDL version 420,2013-02-20 05:39:00,
2013-02-20 00:41:00,27.1,4.3,28.91,NW,318,4.7,15.2,33,0.00,,,0.00,WSDL version 420,2013-02-20 05:41:00,
2013-02-20 00:46:00,27.0,4.3,28.91,WNW,300,4.8,12.1,33,0.00,,,0.00,WSDL version 420,2013-02-20 05:46:00,
2013-02-20 00:51:00,26.9,4.6,28.91,NW,309,5.5,8.1,33,-99.99,,,-99.99,WSDL version 420,2013-02-20 05:51:00,
2013-02-20 00:56:00,27.0,4.8,28.91,West,273,2.6,8.1,34,-99.99,,,-99.99,WSDL version 420,2013-02-20 05:56:00,
2013-02-20 01:01:00,26.8,4.3,28.91,NW,307,3.5,6.0,33,-99.99,,,-99.99,WSDL version 420,2013-02-20 06:01:00,
2013-02-20 01:06:00,26.8,4.2,28.91,NNW,330,2.4,6.0,33,0.00,,,0.00,WSDL version 420,2013-02-20 06:06:00,
2013-02-20 01:11:00,26.8,4.2,28.91,WNW,298,5.0,7.4,33,0.00,,,0.00,WSDL version 420,2013-02-20 06:11:00,
2013-02-20 01:16:00,26.8,3.6,28.91,NW,307,3.4,7.4,32,0.00,,,0.00,WSDL version 420,2013-02-20 06:16:00,
2013-02-20 01:21:00,26.8,3.6,28.91,NW,318,2.5,6.7,32,-99.99,,,-99.99,WSDL version 420,2013-02-20 06:21:00,
2013-02-20 01:26:00,26.8,3.6,28.91,West,281,6.5,10.1,32,-99.99,,,-99.99,WSDL version 420,2013-02-20 06:26:00,
2013-02-20 01:31:00,26.8,3.6,28.91,NW,320,4.2,10.1,32,0.00,,,0.00,WSDL version 420,2013-02-20 06:31:00,
2013-02-20 01:36:00,26.8,3.0,28.91,NW,321,3.4,8.7,31,0.00,,,0.00,WSDL version 420,2013-02-20 06:36:00,
2013-02-20 01:41:00,26.6,3.4,28.91,NNW,333,3.4,8.7,32,-99.99,,,-99.99,WSDL version 420,2013-02-20 06:41:00,
2013-02-20 01:46:00,26.6,3.4,28.91,WNW,295,4.6,9.8,32,0.00,,,0.00,WSDL version 420,2013-02-20 06:46:00,
2013-02-20 01:51:00,26.6,3.4,28.94,WNW,285,6.2,10.5,32,-99.99,,,-99.99,WSDL version 420,2013-02-20 06:51:00,
2013-02-20 01:56:00,26.5,3.3,28.94,NW,310,9.1,13.2,32,-99.99,,,-99.99,WSDL version 420,2013-02-20 06:56:00,
2013-02-20 02:01:00,26.3,3.2,28.94,WNW,295,5.0,13.2,32,-99.99,,,-99.99,WSDL version 420,2013-02-20 07:01:00,
2013-02-20 02:06:00,26.2,3.1,28.91,West,278,8.2,13.0,32,0.00,,,0.00,WSDL version 420,2013-02-20 07:06:00,
2013-02-20 02:11:00,26.1,2.9,28.91,NW,312,6.4,13.0,32,0.00,,,0.00,WSDL version 420,2013-02-20 07:11:00,
2013-02-20 02:16:00,26.1,3.5,28.91,NW,305,4.0,9.8,33,0.00,,,0.00,WSDL version 420,2013-02-20 07:16:00,
2013-02-20 02:21:00,25.9,3.7,28.94,NW,326,4.1,7.6,34,-99.99,,,-99.99,WSDL version 420,2013-02-20 07:21:00,
2013-02-20 02:26:00,25.8,3.9,28.94,NW,320,4.4,7.2,34,-99.99,,,-99.99,WSDL version 420,2013-02-20 07:26:00,
2013-02-20 02:31:00,25.7,3.8,28.94,WNW,283,3.9,8.7,34,-99.99,,,-99.99,WSDL version 420,2013-02-20 07:31:00,
2013-02-20 02:36:00,25.6,3.8,28.94,NW,326,3.2,8.7,34,0.00,,,0.00,WSDL version 420,2013-02-20 07:36:00,
2013-02-20 02:41:00,25.5,3.6,28.94,WNW,290,5.2,7.2,34,0.00,,,0.00,WSDL version 420,2013-02-20 07:41:00,
2013-02-20 02:46:00,25.5,3.4,28.94,WNW,284,4.8,8.5,33,-99.99,,,-99.99,WSDL version 420,2013-02-20 07:46:00,
2013-02-20 02:51:00,25.5,3.0,28.94,WNW,298,4.0,8.5,33,0.00,,,0.00,WSDL version 420,2013-02-20 07:51:00,
2013-02-20 02:56:00,25.5,3.0,28.94,NW,326,5.7,8.1,33,0.00,,,0.00,WSDL version 420,2013-02-20 07:56:00,
2013-02-20 03:05:00,25.3,3.4,28.94,NW,308,2.5,7.2,34,0.00,,,0.00,WSDL version 420,2013-02-20 08:05:00,
2013-02-20 03:10:00,25.2,3.5,28.94,WNW,290,2.6,4.7,35,0.00,,,0.00,WSDL version 420,2013-02-20 08:10:00,
2013-02-20 03:15:00,25.0,4.0,28.94,NW,315,6.4,13.0,35,-99.99,,,-99.99,WSDL version 420,2013-02-20 08:15:00,
2013-02-20 03:20:00,24.8,3.5,28.94,WNW,303,5.6,13.0,36,0.00,,,0.00,WSDL version 420,2013-02-20 08:20:00,
2013-02-20 03:25:00,24.7,3.1,28.94,WNW,298,6.0,10.3,34,-99.99,,,-99.99,WSDL version 420,2013-02-20 08:25:00,
2013-02-20 03:30:00,24.7,2.8,28.94,WNW,290,4.6,8.7,34,0.00,,,0.00,WSDL version 420,2013-02-20 08:30:00,
2013-02-20 03:35:00,24.7,2.4,28.94,West,273,3.1,8.7,33,0.00,,,0.00,WSDL version 420,2013-02-20 08:35:00,
2013-02-20 03:40:00,24.7,2.1,28.94,NW,325,6.5,10.3,32,0.00,,,0.00,WSDL version 420,2013-02-20 08:40:00,
2013-02-20 03:45:00,24.8,1.8,28.94,NW,304,6.5,11.0,32,0.00,,,0.00,WSDL version 420,2013-02-20 08:45:00,
2013-02-20 03:50:00,24.7,-0.2,28.94,NW,304,6.9,14.3,29,-99.99,,,-99.99,WSDL version 420,2013-02-20 08:50:00,
2013-02-20 03:55:00,24.6,-1.2,28.94,NW,305,6.3,14.3,29,0.00,,,0.00,WSDL version 420,2013-02-20 08:55:00,
2013-02-20 04:00:00,24.6,-0.7,28.94,NW,321,7.0,11.0,29,0.00,,,0.00,WSDL version 420,2013-02-20 09:00:00,
2013-02-20 04:05:00,24.6,-1.4,28.94,NNW,330,5.3,10.1,27,-99.99,,,-99.99,WSDL version 420,2013-02-20 09:05:00,
2013-02-20 04:10:00,24.6,-0.3,28.94,WNW,301,2.8,8.1,29,0.00,,,0.00,WSDL version 420,2013-02-20 09:10:00,
2013-02-20 04:15:00,24.6,-0.3,28.94,WNW,300,3.8,8.7,29,0.00,,,0.00,WSDL version 420,2013-02-20 09:15:00,
2013-02-20 04:20:00,24.6,-0.3,28.94,WNW,293,3.0,8.7,29,-99.99,,,-99.99,WSDL version 420,2013-02-20 09:20:00,
2013-02-20 04:25:00,24.6,-0.3,28.94,WNW,300,3.7,6.3,29,0.00,,,0.00,WSDL version 420,2013-02-20 09:25:00,
2013-02-20 04:30:00,24.6,0.4,28.94,NW,305,3.7,6.5,32,-99.99,,,-99.99,WSDL version 420,2013-02-20 09:30:00,
2013-02-20 04:35:00,24.6,1.6,28.97,West,276,1.9,6.5,32,0.00,,,0.00,WSDL version 420,2013-02-20 09:35:00,
2013-02-20 04:40:00,24.6,1.6,28.97,WNW,300,3.5,5.8,32,-99.99,,,-99.99,WSDL version 420,2013-02-20 09:40:00,
2013-02-20 04:45:00,24.6,1.6,28.97,WNW,290,1.6,5.8,32,-99.99,,,-99.99,WSDL version 420,2013-02-20 09:45:00,
2013-02-20 04:50:00,24.5,1.5,28.94,WNW,293,4.6,8.5,32,-99.99,,,-99.99,WSDL version 420,2013-02-20 09:50:00,
2013-02-20 04:55:00,24.4,1.4,28.94,NW,315,4.2,8.5,32,-99.99,,,-99.99,WSDL version 420,2013-02-20 09:55:00,
2013-02-20 05:00:00,24.4,1.6,28.94,WNW,293,4.3,8.1,33,-99.99,,,-99.99,WSDL version 420,2013-02-20 10:00:00,
2013-02-20 05:05:00,24.4,2.0,28.97,West,268,4.2,8.5,33,0.00,,,0.00,WSDL version 420,2013-02-20 10:05:00,
2013-02-20 05:10:00,24.1,2.8,28.97,WNW,287,5.1,8.5,36,-99.99,,,-99.99,WSDL version 420,2013-02-20 10:10:00,
2013-02-20 05:15:00,23.9,3.6,28.97,WNW,300,4.2,8.5,37,0.00,,,0.00,WSDL version 420,2013-02-20 10:15:00,
2013-02-20 05:20:00,23.9,3.7,28.97,WNW,295,4.4,9.2,36,0.00,,,0.00,WSDL version 420,2013-02-20 10:20:00,
2013-02-20 05:25:00,23.9,3.1,28.97,NNW,333,5.9,14.5,36,-99.99,,,-99.99,WSDL version 420,2013-02-20 10:25:00,
2013-02-20 05:30:00,23.8,3.9,28.97,NW,309,6.9,14.8,39,-99.99,,,-99.99,WSDL version 420,2013-02-20 10:30:00,
2013-02-20 05:35:00,23.6,5.0,28.97,West,265,4.1,14.8,39,0.00,,,0.00,WSDL version 420,2013-02-20 10:35:00,
2013-02-20 05:40:00,23.5,4.3,28.97,NW,309,3.8,7.6,38,0.00,,,0.00,WSDL version 420,2013-02-20 10:40:00,
2013-02-20 05:45:00,23.6,3.3,28.97,WNW,290,4.0,7.6,36,0.00,,,0.00,WSDL version 420,2013-02-20 10:45:00,
2013-02-20 05:50:00,23.7,2.6,28.97,NW,325,2.8,6.5,35,0.00,,,0.00,WSDL version 420,2013-02-20 10:50:00,
2013-02-20 05:55:00,23.7,2.2,28.97,NW,304,5.5,10.5,34,0.00,,,0.00,WSDL version 420,2013-02-20 10:55:00,
2013-02-20 06:00:00,23.9,1.9,28.97,NW,310,5.5,10.5,33,-99.99,,,-99.99,WSDL version 420,2013-02-20 11:00:00,
2013-02-20 06:05:00,23.9,1.5,28.97,NW,313,4.0,7.6,33,0.00,,,0.00,WSDL version 420,2013-02-20 11:05:00,
2013-02-20 06:10:00,23.9,1.9,28.97,NNW,330,2.6,6.3,34,0.00,,,0.00,WSDL version 420,2013-02-20 11:10:00,
2013-02-20 06:15:00,23.9,2.1,28.97,WNW,295,2.7,5.8,34,0.00,,,0.00,WSDL version 420,2013-02-20 11:15:00,
2013-02-20 06:20:00,23.9,2.1,28.97,West,278,2.5,6.3,34,-99.99,,,-99.99,WSDL version 420,2013-02-20 11:20:00,
2013-02-20 06:25:00,23.9,2.4,28.97,West,275,3.8,6.3,35,0.00,,,0.00,WSDL version 420,2013-02-20 11:25:00,
2013-02-20 06:30:00,23.9,2.7,28.97,West,278,4.5,7.4,35,0.00,,,0.00,WSDL version 420,2013-02-20 11:30:00,
2013-02-20 06:35:00,23.8,2.6,29.00,WNW,283,4.0,7.4,35,0.00,,,0.00,WSDL version 420,2013-02-20 11:35:00,
2013-02-20 06:40:00,23.7,2.8,29.00,West,280,3.6,6.5,36,-99.99,,,-99.99,WSDL version 420,2013-02-20 11:40:00,
2013-02-20 06:45:00,23.7,3.2,29.00,West,273,4.3,6.3,37,-99.99,,,-99.99,WSDL version 420,2013-02-20 11:45:00,
2013-02-20 06:50:00,23.7,3.4,28.97,NW,318,2.9,7.2,36,-99.99,,,-99.99,WSDL version 420,2013-02-20 11:50:00,
2013-02-20 06:55:00,23.7,3.1,28.97,NNW,340,1.4,7.2,36,0.00,,,0.00,WSDL version 420,2013-02-20 11:55:00,
2013-02-20 07:00:00,23.6,3.6,28.97,NNW,330,2.5,3.8,38,0.00,,,0.00,WSDL version 420,2013-02-20 12:00:00,
2013-02-20 07:05:00,23.5,4.3,29.00,WNW,290,2.9,5.8,40,-99.99,,,-99.99,WSDL version 420,2013-02-20 12:05:00,
2013-02-20 07:10:00,23.5,5.4,29.00,WNW,298,3.0,5.8,42,0.00,,,0.00,WSDL version 420,2013-02-20 12:10:00,
2013-02-20 07:15:00,23.4,5.5,29.00,West,270,1.6,5.6,42,-99.99,,,-99.99,WSDL version 420,2013-02-20 12:15:00,
2013-02-20 07:20:00,23.4,5.7,29.00,West,259,3.1,5.6,42,0.00,,,0.00,WSDL version 420,2013-02-20 12:20:00,
2013-02-20 07:25:00,23.2,6.2,29.00,NW,318,5.1,8.7,43,-99.99,,,-99.99,WSDL version 420,2013-02-20 12:25:00,
2013-02-20 07:30:00,23.3,6.2,29.00,WNW,298,5.2,8.7,43,-99.99,,,-99.99,WSDL version 420,2013-02-20 12:30:00,
2013-02-20 07:35:00,23.4,5.8,29.00,WNW,298,4.4,8.7,42,0.00,,,0.00,WSDL version 420,2013-02-20 12:35:00,
2013-02-20 07:40:00,23.5,5.9,29.00,West,273,2.6,7.2,42,0.00,,,0.00,WSDL version 420,2013-02-20 12:40:00,
2013-02-20 07:45:00,23.5,5.9,29.00,North,353,3.9,7.2,42,-99.99,,,-99.99,WSDL version 420,2013-02-20 12:45:00,
2013-02-20 07:50:00,23.5,5.8,29.03,NNE,33,2.8,7.8,42,0.00,,,0.00,WSDL version 420,2013-02-20 12:50:00,
2013-02-20 07:55:00,23.3,5.8,29.03,SSW,194,1.9,7.8,43,-99.99,,,-99.99,WSDL version 420,2013-02-20 12:55:00,
2013-02-20 08:00:00,23.2,6.0,29.03,WNW,290,3.5,6.5,43,0.00,,,0.00,WSDL version 420,2013-02-20 13:00:00,
2013-02-20 08:05:00,23.1,6.1,29.03,NW,307,4.4,8.1,43,0.00,,,0.00,WSDL version 420,2013-02-20 13:05:00,
2013-02-20 08:10:00,23.2,6.1,29.03,NW,310,5.6,11.0,43,-99.99,,,-99.99,WSDL version 420,2013-02-20 13:10:00,
2013-02-20 08:15:00,23.2,6.1,29.03,NW,325,3.0,11.0,43,-99.99,,,-99.99,WSDL version 420,2013-02-20 13:15:00,
2013-02-20 08:20:00,23.4,6.2,29.03,WNW,298,2.5,4.9,43,-99.99,,,-99.99,WSDL version 420,2013-02-20 13:20:00,
2013-02-20 08:25:00,23.5,6.3,29.03,West,275,2.8,4.7,43,-99.99,,,-99.99,WSDL version 420,2013-02-20 13:25:00,
2013-02-20 08:30:00,23.5,6.4,29.03,WSW,253,2.1,6.0,43,0.00,,,0.00,WSDL version 420,2013-02-20 13:30:00,
2013-02-20 08:35:00,23.5,6.7,29.03,WNW,285,3.8,6.0,43,-99.99,,,-99.99,WSDL version 420,2013-02-20 13:35:00,
2013-02-20 08:40:00,23.6,6.4,29.03,WNW,290,1.1,5.4,43,-99.99,,,-99.99,WSDL version 420,2013-02-20 13:40:00,
2013-02-20 08:45:00,23.8,6.6,29.03,WNW,295,2.2,4.3,43,0.00,,,0.00,WSDL version 420,2013-02-20 13:45:00,
2013-02-20 08:50:00,23.9,6.7,29.03,NW,321,2.2,4.3,43,-99.99,,,-99.99,WSDL version 420,2013-02-20 13:50:00,
2013-02-20 08:55:00,24.0,6.8,29.03,West,278,3.8,6.0,43,0.00,,,0.00,WSDL version 420,2013-02-20 13:55:00,
2013-02-20 09:00:00,24.0,6.8,29.03,NNW,340,1.8,6.0,43,-99.99,,,-99.99,WSDL version 420,2013-02-20 14:00:00,
2013-02-20 09:05:00,24.3,7.1,29.03,WNW,295,3.3,6.3,43,-99.99,,,-99.99,WSDL version 420,2013-02-20 14:05:00,
2013-02-20 09:10:00,24.4,7.2,29.03,WNW,290,3.3,6.3,43,0.00,,,0.00,WSDL version 420,2013-02-20 14:10:00,
2013-02-20 09:15:00,24.6,7.3,29.03,WNW,284,3.0,5.6,43,-99.99,,,-99.99,WSDL version 420,2013-02-20 14:15:00,
2013-02-20 09:20:00,24.6,7.1,29.03,WNW,283,3.8,5.8,42,-99.99,,,-99.99,WSDL version 420,2013-02-20 14:20:00,
2013-02-20 09:25:00,24.9,7.1,29.03,WNW,301,2.2,5.8,42,0.00,,,0.00,WSDL version 420,2013-02-20 14:25:00,
2013-02-20 09:30:00,25.1,7.3,29.03,NW,304,3.9,7.2,41,-99.99,,,-99.99,WSDL version 420,2013-02-20 14:30:00,
2013-02-20 09:35:00,25.1,6.9,29.03,NW,315,3.9,7.4,41,-99.99,,,-99.99,WSDL version 420,2013-02-20 14:35:00,
2013-02-20 09:40:00,25.2,6.5,29.03,West,278,4.6,8.7,40,-99.99,,,-99.99,WSDL version 420,2013-02-20 14:40:00,
2013-02-20 09:45:00,25.2,6.8,29.03,West,280,3.2,8.7,41,0.00,,,0.00,WSDL version 420,2013-02-20 14:45:00,
2013-02-20 09:50:00,25.3,6.8,29.03,West,278,6.2,10.3,39,0.00,,,0.00,WSDL version 420,2013-02-20 14:50:00,
2013-02-20 09:55:00,25.4,6.2,29.03,West,273,5.0,10.3,39,-99.99,,,-99.99,WSDL version 420,2013-02-20 14:55:00,
2013-02-20 10:00:00,25.5,5.8,29.03,West,281,4.7,12.5,38,-99.99,,,-99.99,WSDL version 420,2013-02-20 15:00:00,
2013-02-20 10:05:00,25.9,6.1,29.03,WNW,283,4.4,12.5,38,0.00,,,0.00,WSDL version 420,2013-02-20 15:05:00,
2013-02-20 10:10:00,26.4,6.7,29.03,West,268,4.4,8.1,38,0.00,,,0.00,WSDL version 420,2013-02-20 15:10:00,
2013-02-20 10:15:00,26.9,6.6,29.03,WNW,293,4.6,8.1,36,-99.99,,,-99.99,WSDL version 420,2013-02-20 15:15:00,
2013-02-20 10:20:00,27.0,5.6,29.03,West,278,5.4,8.1,34,-99.99,,,-99.99,WSDL version 420,2013-02-20 15:20:00,
2013-02-20 10:25:00,27.1,5.1,29.03,West,278,4.6,8.7,34,0.00,,,0.00,WSDL version 420,2013-02-20 15:25:00,
2013-02-20 10:30:00,27.5,4.9,29.03,WNW,295,5.1,9.8,33,-99.99,,,-99.99,WSDL version 420,2013-02-20 15:30:00,
2013-02-20 10:35:00,27.8,4.8,29.03,West,262,5.3,9.8,32,-99.99,,,-99.99,WSDL version 420,2013-02-20 15:35:00,
2013-02-20 10:40:00,27.6,4.5,29.03,WNW,298,4.1,9.2,32,0.00,,,0.00,WSDL version 420,2013-02-20 15:40:00,
2013-02-20 10:45:00,27.5,4.2,29.03,West,270,4.0,8.5,32,0.00,,,0.00,WSDL version 420,2013-02-20 15:45:00,
2013-02-20 10:50:00,27.3,4.1,29.03,West,280,3.8,10.1,32,0.00,,,0.00,WSDL version 420,2013-02-20 15:50:00,
2013-02-20 10:55:00,27.3,4.0,29.03,NNW,335,3.8,10.1,32,0.00,,,0.00,WSDL version 420,2013-02-20 15:55:00,
2013-02-20 11:00:00,27.4,4.5,29.03,NW,307,4.3,7.8,33,0.00,,,0.00,WSDL version 420,2013-02-20 16:00:00,
2013-02-20 11:05:00,27.1,4.5,29.03,NNW,338,5.2,7.8,33,-99.99,,,-99.99,WSDL version 420,2013-02-20 16:05:00,
2013-02-20 11:10:00,27.3,5.0,29.03,NW,309,4.7,7.6,34,0.00,,,0.00,WSDL version 420,2013-02-20 16:10:00,
2013-02-20 11:15:00,27.3,5.2,29.03,NW,323,5.3,7.6,34,0.00,,,0.00,WSDL version 420,2013-02-20 16:15:00,
2013-02-20 11:20:00,27.1,5.0,29.03,NNW,329,4.1,7.6,34,-99.99,,,-99.99,WSDL version 420,2013-02-20 16:20:00,
2013-02-20 11:25:00,26.9,4.5,29.03,NW,304,4.5,7.6,33,-99.99,,,-99.99,WSDL version 420,2013-02-20 16:25:00,
2013-02-20 11:30:00,27.8,5.1,29.03,NW,315,3.8,8.1,33,-99.99,,,-99.99,WSDL version 420,2013-02-20 16:30:00,
2013-02-20 11:35:00,27.4,4.7,29.03,WNW,293,3.2,8.1,33,0.00,,,0.00,WSDL version 420,2013-02-20 16:35:00,
2013-02-20 11:40:00,27.0,4.4,29.03,WNW,283,3.8,6.5,33,0.00,,,0.00,WSDL version 420,2013-02-20 16:40:00,
2013-02-20 11:45:00,27.7,5.0,29.03,West,281,3.2,7.8,33,0.00,,,0.00,WSDL version 420,2013-02-20 16:45:00,
2013-02-20 11:50:00,28.4,4.7,29.03,NW,323,6.8,12.3,31,-99.99,,,-99.99,WSDL version 420,2013-02-20 16:50:00,
2013-02-20 11:55:00,29.1,5.1,29.03,NW,305,4.0,12.3,31,0.00,,,0.00,WSDL version 420,2013-02-20 16:55:00,
2013-02-20 12:00:00,32.4,6.2,29.03,West,281,3.6,6.5,30,0.00,,,0.00,WSDL version 420,2013-02-20 17:00:00,
2013-02-20 12:05:00,35.9,4.1,29.03,NNW,335,2.7,6.5,24,0.00,,,0.00,WSDL version 420,2013-02-20 17:05:00,
2013-02-20 12:10:00,36.6,1.7,29.03,West,278,5.3,12.1,22,0.00,,,0.00,WSDL version 420,2013-02-20 17:10:00,
2013-02-20 12:15:00,33.4,0.2,29.03,WNW,285,7.1,12.1,23,-99.99,,,-99.99,WSDL version 420,2013-02-20 17:15:00,
2013-02-20 12:20:00,34.3,-0.4,29.03,WNW,287,3.8,11.9,22,0.00,,,0.00,WSDL version 420,2013-02-20 17:20:00,
2013-02-20 12:25:00,34.8,-0.2,29.03,South,172,3.0,10.3,22,-99.99,,,-99.99,WSDL version 420,2013-02-20 17:25:00,
2013-02-20 12:30:00,31.9,0.6,29.03,NW,318,4.1,10.3,23,-99.99,,,-99.99,WSDL version 420,2013-02-20 17:30:00,
2013-02-20 12:35:00,28.9,-0.9,29.03,NNW,340,6.9,10.5,23,-99.99,,,-99.99,WSDL version 420,2013-02-20 17:35:00,
2013-02-20 12:40:00,28.0,-1.7,29.03,WNW,301,4.6,10.5,23,-99.99,,,-99.99,WSDL version 420,2013-02-20 17:40:00,
2013-02-20 12:45:00,27.5,-0.5,29.03,NW,315,5.1,10.3,26,0.00,,,0.00,WSDL version 420,2013-02-20 17:45:00,
2013-02-20 12:50:00,27.8,0.5,29.03,NNW,345,3.6,10.3,26,-99.99,,,-99.99,WSDL version 420,2013-02-20 17:50:00,
2013-02-20 12:55:00,27.9,0.6,29.03,NNW,346,5.5,7.6,26,-99.99,,,-99.99,WSDL version 420,2013-02-20 17:55:00,
2013-02-20 13:00:00,27.4,0.2,29.03,NW,318,4.5,9.8,26,0.00,,,0.00,WSDL version 420,2013-02-20 18:00:00,
2013-02-20 13:05:00,27.3,0.0,29.03,NW,308,5.7,10.5,26,-99.99,,,-99.99,WSDL version 420,2013-02-20 18:05:00,
2013-02-20 13:10:00,27.1,-0.2,29.03,NW,318,3.7,11.0,26,0.00,,,0.00,WSDL version 420,2013-02-20 18:10:00,
2013-02-20 13:15:00,27.0,-0.2,29.03,NW,325,7.0,12.8,26,0.00,,,0.00,WSDL version 420,2013-02-20 18:15:00,
2013-02-20 13:20:00,26.8,-0.4,29.03,WNW,298,5.0,12.8,26,-99.99,,,-99.99,WSDL version 420,2013-02-20 18:20:00,
2013-02-20 13:25:00,26.8,-0.4,29.03,West,278,5.1,8.5,26,-99.99,,,-99.99,WSDL version 420,2013-02-20 18:25:00,
2013-02-20 13:30:00,26.5,0.8,29.03,North,352,6.8,10.7,29,-99.99,,,-99.99,WSDL version 420,2013-02-20 18:30:00,
2013-02-20 13:35:00,26.6,1.5,29.03,NW,309,6.6,11.9,29,-99.99,,,-99.99,WSDL version 420,2013-02-20 18:35:00,
2013-02-20 13:40:00,26.7,0.1,29.03,NW,310,8.3,17.0,26,-99.99,,,-99.99,WSDL version 420,2013-02-20 18:40:00,
2013-02-20 13:45:00,26.9,0.1,29.03,West,281,4.8,17.0,28,0.00,,,0.00,WSDL version 420,2013-02-20 18:45:00,
2013-02-20 13:50:00,27.5,1.6,29.03,WNW,293,4.1,9.6,28,-99.99,,,-99.99,WSDL version 420,2013-02-20 18:50:00,
2013-02-20 13:55:00,27.8,1.9,29.03,WSW,256,5.9,8.5,28,-99.99,,,-99.99,WSDL version 420,2013-02-20 18:55:00,
2013-02-20 14:00:00,28.3,1.5,29.03,WNW,298,7.4,11.0,25,0.00,,,0.00,WSDL version 420,2013-02-20 19:00:00,
2013-02-20 14:05:00,28.8,0.7,29.03,NW,309,5.4,12.5,25,-99.99,,,-99.99,WSDL version 420,2013-02-20 19:05:00,
2013-02-20 14:10:00,28.0,0.7,29.03,WNW,293,5.8,12.5,26,-99.99,,,-99.99,WSDL version 420,2013-02-20 19:10:00,
2013-02-20 14:15:00,27.5,0.2,29.03,WNW,295,7.1,11.4,26,-99.99,,,-99.99,WSDL version 420,2013-02-20 19:15:00,
2013-02-20 14:20:00,28.4,1.2,29.03,WNW,301,3.2,11.4,28,-99.99,,,-99.99,WSDL version 420,2013-02-20 19:20:00,
2013-02-20 14:25:00,29.8,2.2,29.03,NW,323,5.5,10.3,25,-99.99,,,-99.99,WSDL version 420,2013-02-20 19:25:00,
2013-02-20 14:30:00,29.5,1.3,29.03,North,3,5.5,10.7,25,-99.99,,,-99.99,WSDL version 420,2013-02-20 19:30:00,
2013-02-20 14:35:00,28.8,0.6,29.03,NW,313,5.3,10.7,25,-99.99,,,-99.99,WSDL version 420,2013-02-20 19:35:00,
2013-02-20 14:40:00,28.8,0.6,29.03,WNW,298,5.8,10.3,25,0.00,,,0.00,WSDL version 420,2013-02-20 19:40:00,
2013-02-20 14:45:00,28.4,0.6,29.03,NNW,329,4.4,10.3,26,-99.99,,,-99.99,WSDL version 420,2013-02-20 19:45:00,
2013-02-20 14:50:00,27.8,0.5,29.03,WNW,298,3.6,9.8,26,0.00,,,0.00,WSDL version 420,2013-02-20 19:50:00,
2013-02-20 14:55:00,27.7,0.6,29.03,NNW,335,6.0,12.3,26,0.00,,,0.00,WSDL version 420,2013-02-20 19:55:00,
2013-02-20 15:00:00,27.8,0.5,29.03,WNW,300,5.2,12.3,26,-99.99,,,-99.99,WSDL version 420,2013-02-20 20:00:00,
2013-02-20 15:05:00,27.0,-0.2,29.06,WNW,298,5.4,10.7,26,0.00,,,0.00,WSDL version 420,2013-02-20 20:05:00,
2013-02-20 15:10:00,27.0,-0.3,29.06,NW,307,5.3,10.7,26,0.00,,,0.00,WSDL version 420,2013-02-20 20:10:00,
2013-02-20 15:15:00,27.0,-0.3,29.06,WNW,303,5.3,10.1,26,0.00,,,0.00,WSDL version 420,2013-02-20 20:15:00,
2013-02-20 15:20:00,26.9,-0.3,29.06,WNW,293,5.5,10.1,26,0.00,,,0.00,WSDL version 420,2013-02-20 20:20:00,
2013-02-20 15:25:00,26.6,-0.6,29.06,WNW,298,5.7,8.7,26,0.00,,,0.00,WSDL version 420,2013-02-20 20:25:00,
2013-02-20 15:30:00,26.6,-0.6,29.06,WNW,298,4.5,9.2,26,-99.99,,,-99.99,WSDL version 420,2013-02-20 20:30:00,
2013-02-20 15:35:00,26.7,-0.5,29.06,NNW,332,5.0,9.6,26,0.00,,,0.00,WSDL version 420,2013-02-20 20:35:00,
2013-02-20 15:40:00,26.5,-0.7,29.06,WNW,301,5.8,10.5,26,0.00,,,0.00,WSDL version 420,2013-02-20 20:40:00,
2013-02-20 15:45:00,26.1,-1.0,29.06,WNW,288,6.7,12.5,26,-99.99,,,-99.99,WSDL version 420,2013-02-20 20:45:00,
2013-02-20 15:50:00,26.4,-0.8,29.06,West,267,2.7,12.5,26,-99.99,,,-99.99,WSDL version 420,2013-02-20 20:50:00,
2013-02-20 15:55:00,26.5,-0.7,29.06,WNW,295,6.0,13.0,26,0.00,,,0.00,WSDL version 420,2013-02-20 20:55:00,
2013-02-20 16:00:00,26.3,-0.8,29.06,NW,312,5.7,13.0,26,0.00,,,0.00,WSDL version 420,2013-02-20 21:00:00,
2013-02-20 16:05:00,26.7,-0.5,29.06,WNW,301,5.1,10.7,26,-99.99,,,-99.99,WSDL version 420,2013-02-20 21:05:00,
2013-02-20 16:10:00,26.2,-1.0,29.06,NNW,338,3.5,7.8,26,-99.99,,,-99.99,WSDL version 420,2013-02-20 21:10:00,
2013-02-20 16:15:00,26.0,-1.1,29.06,NW,304,4.2,7.6,26,0.00,,,0.00,WSDL version 420,2013-02-20 21:15:00,
2013-02-20 16:20:00,26.0,-1.2,29.09,WSW,248,3.2,10.1,26,-99.99,,,-99.99,WSDL version 420,2013-02-20 21:20:00,
2013-02-20 16:25:00,26.1,-1.0,29.09,WNW,286,3.9,10.1,26,-99.99,,,-99.99,WSDL version 420,2013-02-20 21:25:00,
2013-02-20 16:30:00,26.0,-1.1,29.09,North,355,5.4,10.3,26,-99.99,,,-99.99,WSDL version 420,2013-02-20 21:30:00,
2013-02-20 16:35:00,25.8,-1.3,29.09,NNW,340,5.8,10.3,26,0.00,,,0.00,WSDL version 420,2013-02-20 21:35:00,
2013-02-20 16:40:00,25.7,-1.4,29.09,NW,312,6.6,9.8,26,0.00,,,0.00,WSDL version 420,2013-02-20 21:40:00,
2013-02-20 16:45:00,25.6,-3.0,29.09,NW,310,5.1,10.7,24,-99.99,,,-99.99,WSDL version 420,2013-02-20 21:45:00,
2013-02-20 16:50:00,25.3,-3.2,29.09,WNW,302,8.0,13.4,24,0.00,,,0.00,WSDL version 420,2013-02-20 21:50:00,
2013-02-20 16:55:00,25.3,-3.2,29.09,NW,313,4.5,13.4,24,0.00,,,0.00,WSDL version 420,2013-02-20 21:55:00,
2013-02-20 17:00:00,25.3,-3.2,29.09,WNW,290,4.3,10.7,24,0.00,,,0.00,WSDL version 420,2013-02-20 22:00:00,
2013-02-20 17:05:00,25.3,-3.3,29.09,NW,313,5.0,8.1,24,-99.99,,,-99.99,WSDL version 420,2013-02-20 22:05:00,
2013-02-20 17:10:00,25.1,-3.5,29.09,WNW,303,5.0,8.1,24,0.00,,,0.00,WSDL version 420,2013-02-20 22:10:00,
2013-02-20 17:15:00,24.9,-3.6,29.09,WNW,298,3.9,9.8,24,0.00,,,0.00,WSDL version 420,2013-02-20 22:15:00,
2013-02-20 17:20:00,24.8,-3.7,29.09,WNW,293,5.5,9.8,24,0.00,,,0.00,WSDL version 420,2013-02-20 22:20:00,
2013-02-20 17:25:00,24.6,-3.9,29.09,NW,307,3.1,8.1,24,-99.99,,,-99.99,WSDL version 420,2013-02-20 22:25:00,
2013-02-20 17:30:00,24.4,-4.0,29.09,NE,38,3.5,7.2,24,0.00,,,0.00,WSDL version 420,2013-02-20 22:30:00,
2013-02-20 17:35:00,24.1,-3.4,29.12,WNW,301,7.0,8.7,27,-99.99,,,-99.99,WSDL version 420,2013-02-20 22:35:00,
2013-02-20 17:40:00,23.5,-2.6,29.12,West,270,4.6,9.6,27,0.00,,,0.00,WSDL version 420,2013-02-20 22:40:00,
2013-02-20 17:45:00,23.4,-2.8,29.12,NNE,30,1.8,9.6,27,0.00,,,0.00,WSDL version 420,2013-02-20 22:45:00,
2013-02-20 17:50:00,23.3,-2.8,29.12,WNW,293,2.1,7.6,27,-99.99,,,-99.99,WSDL version 420,2013-02-20 22:50:00,
2013-02-20 17:55:00,23.2,-2.4,29.12,NNW,333,3.6,8.5,29,-99.99,,,-99.99,WSDL version 420,2013-02-20 22:55:00,
2013-02-20 18:00:00,23.0,-1.2,29.12,NNW,340,3.0,8.7,30,0.00,,,0.00,WSDL version 420,2013-02-20 23:00:00,
2013-02-20 18:05:00,22.9,-1.2,29.12,North,349,3.5,8.7,30,0.00,,,0.00,WSDL version 420,2013-02-20 23:05:00,
2013-02-20 18:10:00,22.8,-1.3,29.12,NW,323,2.6,6.0,30,0.00,,,0.00,WSDL version 420,2013-02-20 23:10:00,
2013-02-20 18:15:00,22.8,-0.6,29.12,ESE,104,3.9,6.3,32,0.00,,,0.00,WSDL version 420,2013-02-20 23:15:00,
2013-02-20 18:20:00,22.8,-0.1,29.12,WNW,298,4.3,6.5,32,0.00,,,0.00,WSDL version 420,2013-02-20 23:20:00,
2013-02-20 18:25:00,22.7,-0.1,29.12,North,352,2.7,6.5,32,0.00,,,0.00,WSDL version 420,2013-02-20 23:25:00,
2013-02-20 18:30:00,22.8,-0.1,29.12,NW,304,2.9,5.8,32,0.00,,,0.00,WSDL version 420,2013-02-20 23:30:00,
2013-02-20 18:35:00,22.8,-0.1,29.12,NNE,31,2.3,5.8,32,-99.99,,,-99.99,WSDL version 420,2013-02-20 23:35:00,
2013-02-20 18:40:00,22.8,0.0,29.12,NW,326,2.0,5.8,32,-99.99,,,-99.99,WSDL version 420,2013-02-20 23:40:00,
2013-02-20 18:45:00,22.8,0.0,29.12,West,278,2.1,4.7,32,-99.99,,,-99.99,WSDL version 420,2013-02-20 23:45:00,
2013-02-20 18:50:00,22.8,-0.4,29.12,SW,225,2.9,4.3,30,0.00,,,0.00,WSDL version 420,2013-02-20 23:50:00,
2013-02-20 18:55:00,22.8,-1.3,29.12,NW,308,3.7,6.0,30,-99.99,,,-99.99,WSDL version 420,2013-02-20 23:55:00,
2013-02-20 19:00:00,22.8,-3.2,29.12,NW,318,4.5,10.3,27,-99.99,,,-99.99,WSDL version 420,2013-02-21 00:00:00,
2013-02-20 19:05:00,22.8,-3.2,29.12,North,11,3.3,10.3,27,0.00,,,0.00,WSDL version 420,2013-02-21 00:05:00,
2013-02-20 19:10:00,22.8,-3.7,29.12,NNW,340,2.9,8.7,25,-99.99,,,-99.99,WSDL version 420,2013-02-21 00:10:00,
2013-02-20 19:15:00,22.8,-4.7,29.12,NW,315,4.2,8.7,25,-99.99,,,-99.99,WSDL version 420,2013-02-21 00:15:00,
2013-02-20 19:21:00,22.7,-4.8,29.12,NW,304,5.3,7.6,25,0.00,,,0.00,WSDL version 420,2013-02-21 00:21:00,
2013-02-20 19:26:00,22.8,-4.7,29.12,West,260,2.2,7.6,25,0.00,,,0.00,WSDL version 420,2013-02-21 00:26:00,
2013-02-20 19:31:00,22.7,-4.8,29.12,NW,312,3.5,7.8,25,-99.99,,,-99.99,WSDL version 420,2013-02-21 00:31:00,
2013-02-20 19:36:00,22.6,-4.8,29.12,NNE,18,5.1,10.1,25,-99.99,,,-99.99,WSDL version 420,2013-02-21 00:36:00,
2013-02-20 19:41:00,22.6,-4.8,29.12,WNW,303,6.1,10.1,25,0.00,,,0.00,WSDL version 420,2013-02-21 00:41:00,
2013-02-20 19:46:00,22.6,-4.9,29.12,NW,304,3.8,8.1,25,0.00,,,0.00,WSDL version 420,2013-02-21 00:46:00,
2013-02-20 19:51:00,22.5,-5.0,29.15,NW,308,5.2,7.6,25,0.00,,,0.00,WSDL version 420,2013-02-21 00:51:00,
2013-02-20 19:56:00,22.5,-5.0,29.15,NW,321,2.9,7.4,25,-99.99,,,-99.99,WSDL version 420,2013-02-21 00:56:00,
2013-02-20 20:01:00,22.5,-5.0,29.15,NW,320,6.1,8.7,25,0.00,,,0.00,WSDL version 420,2013-02-21 01:01:00,
2013-02-20 20:06:00,22.5,-5.0,29.15,WNW,303,4.3,8.7,25,0.00,,,0.00,WSDL version 420,2013-02-21 01:06:00,
2013-02-20 20:11:00,22.5,-5.0,29.15,NW,318,4.5,10.1,25,0.00,,,0.00,WSDL version 420,2013-02-21 01:11:00,
2013-02-20 20:16:00,22.5,-5.0,29.15,WNW,295,2.7,10.1,25,-99.99,,,-99.99,WSDL version 420,2013-02-21 01:16:00,
2013-02-20 20:21:00,22.4,-5.1,29.15,WNW,293,6.1,10.1,25,0.00,,,0.00,WSDL version 420,2013-02-21 01:21:00,
2013-02-20 20:26:00,22.3,-5.2,29.15,NW,309,6.1,10.1,25,-99.99,,,-99.99,WSDL version 420,2013-02-21 01:26:00,
2013-02-20 20:31:00,22.3,-5.2,29.15,WNW,298,4.4,9.6,25,0.00,,,0.00,WSDL version 420,2013-02-21 01:31:00,
2013-02-20 20:36:00,22.3,-5.2,29.15,WNW,295,3.5,9.6,25,0.00,,,0.00,WSDL version 420,2013-02-21 01:36:00,
2013-02-20 20:41:00,22.2,-5.2,29.15,West,273,4.8,7.8,25,-99.99,,,-99.99,WSDL version 420,2013-02-21 01:41:00,
2013-02-20 20:46:00,22.1,-5.3,29.15,NNE,25,4.1,7.8,25,-99.99,,,-99.99,WSDL version 420,2013-02-21 01:46:00,
2013-02-20 20:51:00,22.1,-5.3,29.15,West,262,3.5,7.6,25,-99.99,,,-99.99,WSDL version 420,2013-02-21 01:51:00,
2013-02-20 20:56:00,22.1,-5.3,29.15,NNW,338,3.4,6.5,25,-99.99,,,-99.99,WSDL version 420,2013-02-21 01:56:00,
2013-02-20 21:01:00,22.1,-5.3,29.15,West,281,4.3,6.5,25,0.00,,,0.00,WSDL version 420,2013-02-21 02:01:00,
2013-02-20 21:06:00,22.1,-5.3,29.15,NNW,329,6.3,10.3,25,0.00,,,0.00,WSDL version 420,2013-02-21 02:06:00,
2013-02-20 21:11:00,22.1,-5.3,29.15,WNW,301,3.1,10.3,25,0.00,,,0.00,WSDL version 420,2013-02-21 02:11:00,
2013-02-20 21:16:00,22.1,-5.3,29.15,WNW,287,4.5,6.0,25,0.00,,,0.00,WSDL version 420,2013-02-21 02:16:00,
2013-02-20 21:21:00,22.1,-5.3,29.15,NW,320,4.0,7.8,25,-99.99,,,-99.99,WSDL version 420,2013-02-21 02:21:00,
2013-02-20 21:26:00,22.1,-5.3,29.15,NW,305,3.5,7.8,25,0.00,,,0.00,WSDL version 420,2013-02-21 02:26:00,
2013-02-20 21:31:00,22.1,-5.3,29.15,West,275,2.9,7.6,25,-99.99,,,-99.99,WSDL version 420,2013-02-21 02:31:00,
2013-02-20 21:36:00,22.1,-5.3,29.15,NW,315,2.5,4.9,25,0.00,,,0.00,WSDL version 420,2013-02-21 02:36:00,
2013-02-20 21:41:00,22.1,-5.3,29.15,NW,304,2.7,4.9,25,0.00,,,0.00,WSDL version 420,2013-02-21 02:41:00,
2013-02-20 21:46:00,22.1,-5.3,29.15,NW,313,3.8,5.8,25,-99.99,,,-99.99,WSDL version 420,2013-02-21 02:46:00,
2013-02-20 21:51:00,22.1,-5.3,29.15,WNW,295,1.8,5.8,25,-99.99,,,-99.99,WSDL version 420,2013-02-21 02:51:00,
2013-02-20 21:56:00,21.9,-5.5,29.15,WNW,303,3.7,7.4,25,-99.99,,,-99.99,WSDL version 420,2013-02-21 02:56:00,
2013-02-20 22:01:00,21.9,-5.5,29.15,WSW,258,1.6,7.4,25,0.00,,,0.00,WSDL version 420,2013-02-21 03:01:00,
2013-02-20 22:06:00,21.9,-5.5,29.15,NNW,338,2.4,4.0,25,-99.99,,,-99.99,WSDL version 420,2013-02-21 03:06:00,
2013-02-20 22:11:00,21.9,-5.5,29.15,WNW,283,3.0,6.5,25,0.00,,,0.00,WSDL version 420,2013-02-21 03:11:00,
2013-02-20 22:16:00,21.9,-5.5,29.15,NNW,338,3.7,6.5,25,-99.99,,,-99.99,WSDL version 420,2013-02-21 03:16:00,
2013-02-20 22:21:00,21.9,-5.5,29.15,NW,310,2.1,5.8,25,-99.99,,,-99.99,WSDL version 420,2013-02-21 03:21:00,
2013-02-20 22:26:00,21.9,-5.5,29.15,WNW,298,4.5,7.6,25,-99.99,,,-99.99,WSDL version 420,2013-02-21 03:26:00,
2013-02-20 22:31:00,21.9,-5.5,29.15,NW,305,4.1,8.5,25,0.00,,,0.00,WSDL version 420,2013-02-21 03:31:00,
2013-02-20 22:36:00,21.9,-5.5,29.12,NW,323,1.8,8.5,25,-99.99,,,-99.99,WSDL version 420,2013-02-21 03:36:00,
2013-02-20 22:41:00,21.9,-5.5,29.12,NNW,332,2.2,6.0,25,0.00,,,0.00,WSDL version 420,2013-02-21 03:41:00,
2013-02-20 22:46:00,21.9,-5.5,29.12,NW,315,4.1,6.5,25,-99.99,,,-99.99,WSDL version 420,2013-02-21 03:46:00,
2013-02-20 22:51:00,21.9,-5.5,29.15,WNW,300,2.8,6.5,25,0.00,,,0.00,WSDL version 420,2013-02-21 03:51:00,
2013-02-20 22:56:00,21.9,-5.5,29.15,WNW,284,3.3,4.9,25,-99.99,,,-99.99,WSDL version 420,2013-02-21 03:56:00,
2013-02-20 23:01:00,22.1,-5.4,29.15,West,273,2.3,4.9,25,0.00,,,0.00,WSDL version 420,2013-02-21 04:01:00,
2013-02-20 23:06:00,21.9,-5.5,29.12,WNW,298,3.6,6.0,25,-99.99,,,-99.99,WSDL version 420,2013-02-21 04:06:00,
2013-02-20 23:11:00,21.9,-5.5,29.12,West,273,1.9,6.0,25,-99.99,,,-99.99,WSDL version 420,2013-02-21 04:11:00,
2013-02-20 23:16:00,21.9,-4.3,29.12,NNW,335,2.3,4.9,27,0.00,,,0.00,WSDL version 420,2013-02-21 04:16:00,
2013-02-20 23:21:00,21.9,-4.0,29.12,NW,318,3.0,4.3,27,-99.99,,,-99.99,WSDL version 420,2013-02-21 04:21:00,
2013-02-20 23:26:00,21.9,-4.0,29.12,WNW,295,2.1,4.3,27,0.00,,,0.00,WSDL version 420,2013-02-21 04:26:00,
2013-02-20 23:31:00,21.9,-4.0,29.12,WNW,295,2.3,3.8,27,0.00,,,0.00,WSDL version 420,2013-02-21 04:31:00,
2013-02-20 23:36:00,21.9,-4.0,29.12,WNW,295,3.1,4.3,27,0.00,,,0.00,WSDL version 420,2013-02-21 04:36:00,
2013-02-20 23:41:00,21.9,-4.0,29.12,WNW,284,3.2,6.7,27,0.00,,,0.00,WSDL version 420,2013-02-21 04:41:00,
2013-02-20 23:46:00,21.9,-4.0,29.12,WNW,288,3.9,6.7,27,0.00,,,0.00,WSDL version 420,2013-02-21 04:46:00,
2013-02-20 23:51:00,21.9,-4.0,29.12,WNW,290,3.1,5.8,27,-99.99,,,-99.99,WSDL version 420,2013-02-21 04:51:00,
2013-02-20 23:56:00,21.9,-2.5,29.12,West,280,5.0,6.3,27,0.00,,,0.00,WSDL version 420,2013-02-21 04:56:00,